TimePST,TemperatureF,Dew PointF,Humidity,Sea Level PressureIn,VisibilityMPH,Wind Direction,Wind SpeedMPH,Gust SpeedMPH,PrecipitationIn,Events,Conditions,WindDirDegrees,DateUTC
12:35 AM,30.2,30.2,100,30.69,0.2,Calm,Calm,-,N/A,Fog,Light Freezing Fog,0,2013-01-16 08:35:00
12:55 AM,30.2,28.4,93,30.68,0.5,Calm,Calm,-,N/A,Fog,Light Freezing Fog,0,2013-01-16 08:55:00
1:15 AM,30.2,30.2,100,30.68,0.8,Calm,Calm,-,N/A,,Overcast,0,2013-01-16 09:15:00
1:35 AM,30.2,30.2,100,30.68,0.5,Calm,Calm,-,N/A,Fog,Light Freezing Fog,0,2013-01-16 09:35:00
1:55 AM,30.2,30.2,100,30.68,0.2,Calm,Calm,-,N/A,Fog,Light Freezing Fog,0,2013-01-16 09:55:00
2:15 AM,32.0,30.2,93,30.69,0.2,Calm,Calm,-,N/A,Fog,Light Freezing Fog,0,2013-01-16 10:15:00
2:35 AM,32.0,30.2,93,30.69,0.5,Calm,Calm,-,N/A,Fog,Light Freezing Fog,0,2013-01-16 10:35:00
2:55 AM,32.0,32.0,100,30.69,0.2,Calm,Calm,-,N/A,Fog,Light Freezing Fog,0,2013-01-16 10:55:00
3:35 AM,32.0,32.0,100,30.68,1.2,Calm,Calm,-,N/A,,Overcast,0,2013-01-16 11:35:00
3:55 AM,32.0,32.0,100,30.68,0.8,Calm,Calm,-,N/A,,Overcast,0,2013-01-16 11:55:00
4:35 AM,32.0,32.0,100,30.67,1.8,Calm,Calm,-,N/A,,Overcast,0,2013-01-16 12:35:00
4:55 AM,32.0,32.0,100,30.67,3.0,Calm,Calm,-,N/A,,Overcast,0,2013-01-16 12:55:00
5:15 AM,32.0,32.0,100,30.66,1.5,Calm,Calm,-,N/A,,Overcast,0,2013-01-16 13:15:00
5:35 AM,32.0,32.0,100,30.66,1.0,Calm,Calm,-,N/A,,Overcast,0,2013-01-16 13:35:00
5:55 AM,32.0,32.0,100,30.66,5.0,Calm,Calm,-,N/A,,Overcast,0,2013-01-16 13:55:00
6:15 AM,32.0,32.0,100,30.66,1.8,Calm,Calm,-,N/A,,Overcast,0,2013-01-16 14:15:00
6:35 AM,32.0,32.0,100,30.66,1.5,Calm,Calm,-,N/A,,Overcast,0,2013-01-16 14:35:00
6:55 AM,32.0,32.0,100,30.65,1.8,Calm,Calm,-,N/A,,Overcast,0,2013-01-16 14:55:00
7:15 AM,32.0,32.0,100,30.65,2.5,Calm,Calm,-,N/A,,Overcast,0,2013-01-16 15:15:00
7:35 AM,32.0,32.0,100,30.66,3.0,Calm,Calm,-,N/A,,Overcast,0,2013-01-16 15:35:00
7:55 AM,32.0,32.0,100,30.66,2.5,Calm,Calm,-,N/A,,Overcast,0,2013-01-16 15:55:00
8:15 AM,32.0,32.0,100,30.66,0.5,Calm,Calm,-,N/A,Fog,Light Freezing Fog,0,2013-01-16 16:15:00
8:35 AM,32.0,32.0,100,30.66,1.0,Calm,Calm,-,N/A,,Overcast,0,2013-01-16 16:35:00
8:55 AM,32.0,32.0,100,30.66,1.5,SSE,3.5,-,N/A,,Overcast,150,2013-01-16 16:55:00
9:15 AM,32.0,32.0,100,30.67,3.0,Calm,Calm,-,N/A,,Overcast,0,2013-01-16 17:15:00
9:35 AM,32.0,32.0,100,30.66,3.0,Calm,Calm,-,N/A,,Overcast,0,2013-01-16 17:35:00
9:55 AM,32.0,32.0,100,30.66,1.8,SSW,4.6,-,N/A,,Overcast,210,2013-01-16 17:55:00
10:15 AM,32.0,32.0,100,30.65,1.0,Calm,Calm,-,N/A,,Overcast,0,2013-01-16 18:15:00
10:55 AM,32.0,32.0,100,30.65,1.5,Calm,Calm,-,N/A,,Overcast,0,2013-01-16 18:55:00
11:15 AM,32.0,32.0,100,30.64,1.0,Calm,Calm,-,N/A,,Overcast,0,2013-01-16 19:15:00
11:35 AM,32.0,32.0,100,30.64,1.8,Calm,Calm,-,N/A,,Overcast,0,2013-01-16 19:35:00
11:55 AM,32.0,32.0,100,30.63,1.2,Calm,Calm,-,N/A,,Overcast,0,2013-01-16 19:55:00
12:15 PM,32.0,32.0,100,30.63,1.5,Calm,Calm,-,N/A,,Overcast,0,2013-01-16 20:15:00
12:35 PM,32.0,32.0,100,30.62,1.0,NNW,3.5,-,N/A,,Overcast,340,2013-01-16 20:35:00
12:55 PM,32.0,32.0,100,30.62,1.0,Calm,Calm,-,N/A,,Overcast,0,2013-01-16 20:55:00
1:15 PM,32.0,32.0,100,30.61,1.8,North,3.5,-,N/A,,Overcast,350,2013-01-16 21:15:00
1:35 PM,32.0,32.0,100,30.61,2.5,North,4.6,-,N/A,,Overcast,10,2013-01-16 21:35:00
1:55 PM,32.0,32.0,100,30.60,3.0,Calm,Calm,-,N/A,,Overcast,0,2013-01-16 21:55:00
2:15 PM,33.8,32.0,93,30.59,4.0,Calm,Calm,-,N/A,,Overcast,0,2013-01-16 22:15:00
2:35 PM,33.8,32.0,93,30.59,3.0,Calm,Calm,-,N/A,,Overcast,0,2013-01-16 22:35:00
2:55 PM,33.8,32.0,93,30.59,3.0,NNE,3.5,-,N/A,,Overcast,20,2013-01-16 22:55:00
3:15 PM,33.8,32.0,93,30.59,2.0,North,3.5,-,N/A,,Overcast,360,2013-01-16 23:15:00
3:35 PM,33.8,32.0,93,30.59,2.0,Calm,Calm,-,N/A,,Overcast,0,2013-01-16 23:35:00
3:55 PM,32.0,32.0,100,30.58,0.8,Calm,Calm,-,N/A,,Overcast,0,2013-01-16 23:55:00
4:15 PM,32.0,32.0,100,30.58,3.0,North,3.5,-,N/A,,Overcast,350,2013-01-17 00:15:00
4:35 PM,32.0,32.0,100,30.57,0.8,Calm,Calm,-,N/A,,Overcast,0,2013-01-17 00:35:00
4:55 PM,32.0,32.0,100,30.57,1.2,Calm,Calm,-,N/A,,Overcast,0,2013-01-17 00:55:00
5:15 PM,32.0,32.0,100,30.57,1.8,Calm,Calm,-,N/A,,Overcast,0,2013-01-17 01:15:00
5:35 PM,32.0,32.0,100,30.57,2.0,Calm,Calm,-,N/A,,Overcast,0,2013-01-17 01:35:00
5:55 PM,32.0,32.0,100,30.57,3.0,Calm,Calm,-,N/A,,Overcast,0,2013-01-17 01:55:00
6:15 PM,32.0,32.0,100,30.56,3.0,Calm,Calm,-,N/A,,Overcast,0,2013-01-17 02:15:00
6:55 PM,32.0,32.0,100,30.57,1.2,Calm,Calm,-,N/A,,Overcast,0,2013-01-17 02:55:00
7:15 PM,32.0,32.0,100,30.57,0.8,Calm,Calm,-,N/A,,Overcast,0,2013-01-17 03:15:00
7:35 PM,33.8,32.0,93,30.57,1.5,Calm,Calm,-,N/A,,Overcast,0,2013-01-17 03:35:00
7:55 PM,32.0,32.0,100,30.57,0.8,Calm,Calm,-,N/A,,Overcast,0,2013-01-17 03:55:00
8:15 PM,32.0,32.0,100,30.56,0.5,SSW,3.5,-,N/A,Fog,Fog,210,2013-01-17 04:15:00
8:35 PM,32.0,32.0,100,30.56,0.5,Calm,Calm,-,N/A,Fog,Fog,0,2013-01-17 04:35:00
8:55 PM,32.0,32.0,100,30.55,0.2,Calm,Calm,-,N/A,Fog,Fog,0,2013-01-17 04:55:00
9:15 PM,32.0,32.0,100,30.55,0.2,Calm,Calm,-,N/A,Fog,Fog,0,2013-01-17 05:15:00
9:35 PM,32.0,32.0,100,30.55,0.2,Calm,Calm,-,N/A,Fog,Fog,0,2013-01-17 05:35:00
9:55 PM,32.0,32.0,100,30.55,0.2,Calm,Calm,-,N/A,Fog,Fog,0,2013-01-17 05:55:00
10:15 PM,32.0,32.0,100,30.53,0.2,SSW,3.5,-,N/A,Fog,Fog,210,2013-01-17 06:15:00
10:35 PM,32.0,32.0,100,30.53,0.2,Calm,Calm,-,N/A,Fog,Fog,0,2013-01-17 06:35:00
10:55 PM,32.0,32.0,100,30.53,0.5,Calm,Calm,-,N/A,Fog,Fog,0,2013-01-17 06:55:00
11:15 PM,32.0,32.0,100,30.53,0.5,Calm,Calm,-,N/A,Fog,Fog,0,2013-01-17 07:15:00
11:35 PM,32.0,32.0,100,30.54,0.5,Calm,Calm,-,N/A,Fog,Fog,0,2013-01-17 07:35:00
11:55 PM,32.0,32.0,100,30.53,0.5,Calm,Calm,-,N/A,Fog,Fog,0,2013-01-17 07:55:00